Location: Cactus School
(34.5700°N, 118.0931°W)
Time: 04:29:20
(UTC-08:00)

Tiros 1 - Pass Details

Date: 28 November 2019
Orbit: 630 x 664 km, 48.4° (Epoch: 07 December)

Event Time Altitude Azimuth Distance (km) Brightness Sun altitude
Rises 15:57:22 0° 311° (NW) 2,917 10.7 7.3°
Reaches altitude 10° 15:59:47 10° 318° (NW) 2,009 9.9 6.8°
Maximum altitude 16:04:13 45° 31° (NNE) 867 7.5 6.1°
Drops below altitude 10° 16:08:39 10° 105° (ESE) 2,013 9.3 5.3°
Sets 16:11:04 0° 111° (ESE) 2,924 10.1 4.8°
